Powrót do katalogu

DELTA 1 DEB

LostSSO
NORAD 42590·DEBRIS·🇺🇸 United States

Wystrzelony Nov 6, 1973 z Vandenberg Space Force Base

Loading…

Następne Przeloty (najbliższe 24 godziny)

TLE

NieaktualneSource: Space-Track

Epoka: Sep 22, 2022, 05:03 UTC

1 42590U 73086JE  22265.21061323  .00000158  00000-0  10188-2 0  9993
2 42590 101.0688 265.2008 0058378 168.9071 191.3313 12.68991917365774

Śledź DELTA 1 DEB w czasie rzeczywistym z AllMySat

Download on the App Store